Regional Weather Roundup
Issued by NWS

Home | Current Version | Previous Version | Graphics & Text | Print | Product List | Glossary On
Versions: 1 2 3 4 5 6 7 8 9 10 11 12 13 14 15 16 17 18 19 20 21 22 23 24 25 26 27 28 29 30 31 32 33 34 35 36 37 38 39 40 41 42 43 44 45 46 47 48 49 50
000
ASUS43 KLSX 251107
RWRMO

WEATHER SUMMARY FOR MISSOURI
NATIONAL WEATHER SERVICE SPRINGFIELD MO
600 AM CDT MON MAY 25 2015

NOTE: "FAIR" INDICATES FEW OR NO CLOUDS BELOW 12,000 FEET WITH NO
       SIGNIFICANT WEATHER AND/OR OBSTRUCTIONS TO VISIBILITY.
       CURRENT SKY AND/OR WEATHER CONDITIONS ARE NOT AVAILABLE FOR
       CHILLICOTHE AND FARMINGTON.

MOZ001>031-035>038-043-044-053-054-251200-
...NORTHERN AND WESTERN MISSOURI...

CITY           SKY/WX    TMP DP  RH WIND       PRES   REMARKS
KANSAS CTY INT PTCLDY    58  58 100 SW7       29.88R
KANSAS C DTWN  PTCLDY    62  59  90 S12       29.88R
LEE`S SUMMIT   CLOUDY    61  59  93 S10       29.90R
ST JOSEPH      CLOUDY    62  61  96 SW9       29.86R
CHILLICOTHE      N/A     63  62  97 SW6       29.88R
KIRKSVILLE     LGT RAIN  61  61 100 SW6       29.87R

$$
MOZ066>068-077>081-088>096-101>105-251200-
...SOUTHWEST MISSOURI...

CITY           SKY/WX    TMP DP  RH WIND       PRES   REMARKS
SPRINGFIELD    MOCLDY    62  60  93 S10       29.94R
JOPLIN         CLOUDY    64  62  93 S6        29.92S

$$
MOZ032>034-039>042-045>050-055>058-069>072-251200-
...CENTRAL MISSOURI...

CITY           SKY/WX    TMP DP  RH WIND       PRES   REMARKS
COLUMBIA       CLOUDY    63  61  93 SW9       29.92R
JEFFERSON CITY CLOUDY    64  60  87 S7        29.93R
ROLLA          CLOUDY    63  60  90 SW9       29.95R
SEDALIA        CLOUDY    62  60  93 SW12      29.94R
WARRENSBURG    MOCLDY    61  59  94 S7        29.90S
OSAGE BEACH    PTCLDY    63  59  88 S5        29.94R

$$
MOZ051-052-059>065-251200-
...EAST CENTRAL MISSOURI...

CITY           SKY/WX    TMP DP  RH WIND       PRES   REMARKS
ST LOUIS INTL  MOCLDY    71  64  78 S10       29.93R
SPIRIT OF STL  MOCLDY    68  64  87 SW10      29.91R
ST CHARLES     CLOUDY    69  65  86 S14       29.90R

$$
MOZ072>076-082>087-097>100-106>115-251200-
...SOUTH CENTRAL AND SOUTHEAST MISSOURI...

CITY           SKY/WX    TMP DP  RH WIND       PRES   REMARKS
CAPE GIRARDEAU CLOUDY    69  66  90 S14G24    30.00S
FARMINGTON     CLOUDY    66  64  94 S10       30.02R
POPLAR BLUFF   LGT RAIN  68  66  93 S12       30.00R FOG
WEST PLAINS    CLOUDY    68  64  87 S7        29.99R

$$



USA.gov is the U.S. government's official web portal to all federal, state and local government web resources and services.